THORAD DELTA 1 DEB

Satellite information

Favourite Embed

Satellite Type and Status

DEBRISIN ORBIT

Key statistics

Satellite THORAD DELTA 1 DEB at a glance.

Uptime

18657

Days in orbit

Revolutions

≈ 14.7

Per day

Orbit

SSO

Sun Synchronous Orbit

Inclination

102.9

Latest

Satellite identification and parameters

Extended collection of information and parameters for THORAD DELTA 1 DEB.

Object identification

Identified? True

Debris? True

Object name: THORAD DELTA 1 DEB

International designator: 1974-089BJ

Object number (NORAD): 8301

Object ID (CCSDS): 8301

Country: UNITED STATES OF AMERICA (US)

Current information (Y/N): Y

RCS size: SMALL

Orbital parameters

Period: 97.753 minutes

Inclination: 102.9244 deg

SMA: 7029.331 km

Apoapsis: 728.751 km

Periapsis: 573.641 km

RAAN: 19.6903 deg

Eccentricy: 0.01103302

Argument of periapsis: 133.34 deg

Mean anomaly: 227.7049 deg

Mean motion: 14.73098462 rev/day

Mean motion (dot): 0.00068439 rev/day2

B* drag term: 0.0095698507 1/REarth

Two-line elements (TLE)

Creation date: Dec. 14, 2025, 3:07 a.m.

Reference frame: TEME

Reference center: EARTH

Epoch: Dec. 13, 2025, 3:37 p.m. UTC

TLE line 0: 0 THORAD DELTA 1 DEB

TLE line 1: 1 08301U 74089BJ 25347.65122330 .00068439 00000-0 95699-2 0 9993

TLE line 2: 2 08301 102.9244 19.6903 0110330 133.3400 227.7049 14.73098462521380

Live tracking on map

Real-time ground track for satellite THORAD DELTA 1 DEB.

In-orbit conjunctions

A list of the most updated potential collisions computed for object THORAD DELTA 1 DEB.

Target Orbit TCA Probability of collision Miss distance Type
EXPLORER 25 (INJUN-4) HEO 2025-06-12 17:44:29 0.0007621379 83.0 (m) PAYLOAD
COSMOS 1275 DEB LEO 2024-11-16 14:51:31 0.0001532486 770.0 (m) DEBRIS

Associated space launch

Meteorological satellite using radiometric imaging

THORAD DELTA 1 DEB was lifted into orbit during the mission ‘Delta 2310 | NOAA 4’, on board a Delta 2310 space rocket.

The launch took place on Nov. 15, 1974, 5:11 p.m. from Space Launch Complex 2W.

For more information about the launch, click the button.

Launch to space Delta 2310 | NOAA 4
Delta 2310 | NOAA 4

Agency: N/A

Status: Launch Successful

Launch date: Nov. 15, 1974, 5:11 p.m. UTC

Rocket: Delta 2310

Launch pad: Space Launch Complex 2W

Location: Vandenberg SFB, CA, USA

...

Latest news about this satellite

There are no fresh news available about this satellite. Check back as we update our databases every day.


Newsletter sign-up

Weekly statistics, charts and insights to help you stay on top of the space industry.